NEE-02 KRYSAOR

Last updated on Sun Jun 21 2026 00:03:50 GMT+0000 (Coordinated Universal Time)

1 39441U 13066AB 26171.30534811 .00002109 00000+0 23435-3 0 9990 2 39441 97.8892 110.4975 0067518 60.2269 300.5640 14.86629640676660
UTC large
Height (km)
Speed (km/s)
/
Latitude / Longitude
Inclination (degrees)
Orbital Period (minutes)
Azimuth
Elevation
Range (km)
Doppler Factor

Next 0 passes for location: London (51.5072 / 0.1276)

No passes found over London.
NEE-02 KRYSAOR